| time (UTC) | temp F | wind direction | speed MPH | gust MPH | rain 1hr in | rain 24hr in | rain mn in | humidity % | barometer mb |
| 20260906114558 | 66 | 0 | 0.0 | 0.0 | 0.00 | 0.00 | 0.00 | 95 | 1017.5 |
| 20260906113108 | 66 | 0 | 0.0 | 0.0 | 0.00 | 0.00 | 0.00 | 95 | 1017.4 |
| 20260906111602 | 66 | 0 | 0.0 | 0.0 | 0.00 | 0.00 | 0.00 | 94 | 1017.2 |
| 20260906110057 | 66 | 0 | 0.0 | 0.0 | 0.00 | 0.00 | 0.00 | 94 | 1017.3 |
| 20260906104557 | 66 | 0 | 0.0 | 0.0 | 0.00 | 0.00 | 0.00 | 94 | 1016.8 |
| 20260906103059 | 67 | 0 | 0.0 | 0.0 | 0.00 | 0.00 | 0.00 | 94 | 1016.9 |
| 20260906101553 | 67 | 0 | 0.0 | 0.0 | 0.00 | 0.00 | 0.00 | 94 | 1016.9 |
| 20260906100057 | 67 | 0 | 0.0 | 0.0 | 0.00 | 0.00 | 0.00 | 94 | 1016.8 |
| 20260906094558 | 67 | 0 | 0.0 | 0.0 | 0.00 | 0.00 | 0.00 | 93 | 1016.6 |
| 20260906093058 | 67 | 0 | 0.0 | 0.0 | 0.00 | 0.00 | 0.00 | 93 | 1016.6 |
| 20260906091550 | 68 | 0 | 0.0 | 0.0 | 0.00 | 0.00 | 0.00 | 93 | 1016.6 |
| 20260906090100 | 68 | 0 | 0.0 | 0.0 | 0.00 | 0.00 | 0.00 | 92 | 1016.5 |
| 20260906084556 | 68 | 0 | 0.0 | 0.0 | 0.00 | 0.00 | 0.00 | 92 | 1016.6 |
| 20260906083054 | 69 | 0 | 0.0 | 1.0 | 0.00 | 0.00 | 0.00 | 91 | 1016.5 |
| 20260906081600 | 70 | 0 | 0.0 | 1.0 | 0.00 | 0.00 | 0.00 | 91 | 1016.5 |
| 20260906080058 | 70 | 0 | 0.0 | 0.0 | 0.00 | 0.00 | 0.00 | 91 | 1016.7 |
| 20260906074557 | 70 | 0 | 0.0 | 0.0 | 0.00 | 0.00 | 0.00 | 91 | 1016.7 |
| 20260906073059 | 70 | 0 | 0.0 | 1.0 | 0.00 | 0.00 | 0.00 | 91 | 1016.7 |
| 20260906071552 | 71 | 0 | 0.0 | 0.0 | 0.00 | 0.00 | 0.00 | 91 | 1016.6 |
| 20260906070058 | 71 | 0 | 0.0 | 1.0 | 0.00 | 0.00 | 0.00 | 91 | 1016.9 |
| 20260906064557 | 71 | 0 | 0.0 | 0.0 | 0.00 | 0.00 | 0.00 | 90 | 1016.7 |
| 20260906063057 | 71 | 0 | 0.0 | 3.0 | 0.00 | 0.00 | 0.00 | 90 | 1016.8 |
| 20260906061606 | 71 | 0 | 0.0 | 4.0 | 0.00 | 0.00 | 0.00 | 90 | 1016.8 |
| 20260906060059 | 71 | 0 | 0.0 | 2.0 | 0.00 | 0.00 | 0.00 | 90 | 1016.6 |
| 20260906054601 | 71 | 0 | 0.0 | 4.0 | 0.00 | 0.00 | 0.00 | 90 | 1016.4 |
| 20260906053058 | 71 | 0 | 0.0 | 3.0 | 0.00 | 0.00 | 0.00 | 90 | 1016.4 |
| 20260906051604 | 71 | 0 | 0.0 | 2.0 | 0.00 | 0.00 | 0.00 | 90 | 1016.5 |
| 20260906050053 | 71 | 0 | 0.0 | 1.0 | 0.00 | 0.00 | 0.00 | 90 | 1016.5 |
| 20260906044559 | 71 | 0 | 0.0 | 4.0 | 0.00 | 0.00 | 0.00 | 90 | 1016.3 |
| 20260906043055 | 71 | 5 | 0.0 | 2.0 | 0.00 | 0.00 | 0.00 | 89 | 1016.1 |
| 20260906041554 | 71 | 0 | 0.0 | 5.0 | 0.00 | 0.00 | 0.00 | 88 | 1015.8 |
| 20260906040050 | 71 | 5 | 0.0 | 8.0 | 0.00 | 0.00 | 0.00 | 88 | 1015.6 |
| 20260906034605 | 72 | 0 | 0.0 | 5.0 | 0.00 | 0.00 | 0.00 | 87 | 1015.5 |
| 20260906033056 | 72 | 0 | 1.0 | 6.0 | 0.00 | 0.00 | 0.00 | 87 | 1015.5 |
| 20260906031555 | 72 | 0 | 1.0 | 6.0 | 0.00 | 0.00 | 0.00 | 87 | 1015.7 |
| 20260906030056 | 72 | 5 | 0.0 | 4.0 | 0.00 | 0.00 | 0.00 | 87 | 1015.5 |
| 20260906024555 | 72 | 0 | 0.0 | 9.0 | 0.00 | 0.00 | 0.00 | 87 | 1015.7 |
| 20260906023051 | 72 | 5 | 0.0 | 6.0 | 0.00 | 0.00 | 0.00 | 87 | 1015.6 |
| 20260906021558 | 72 | 5 | 1.0 | 9.0 | 0.00 | 0.00 | 0.00 | 87 | 1015.6 |
| 20260906020056 | 72 | 5 | 1.0 | 9.0 | 0.00 | 0.00 | 0.00 | 87 | 1015.5 |
| 20260906014559 | 72 | 5 | 0.0 | 4.0 | 0.00 | 0.00 | 0.00 | 87 | 1015.7 |
| 20260906013059 | 72 | 5 | 0.0 | 11.0 | 0.00 | 0.00 | 0.00 | 86 | 1015.7 |
| 20260906011604 | 72 | 5 | 1.0 | 6.0 | 0.00 | 0.00 | 0.00 | 86 | 1015.7 |
| 20260906010058 | 72 | 5 | 2.0 | 9.0 | 0.00 | 0.00 | 0.00 | 86 | 1015.6 |
| 20260906004601 | 72 | 5 | 2.0 | 8.0 | 0.00 | 0.00 | 0.00 | 85 | 1015.4 |
| 20260906003058 | 72 | 5 | 1.0 | 6.0 | 0.00 | 0.00 | 0.00 | 85 | 1015.1 |
| 20260906001555 | 73 | 5 | 1.0 | 5.0 | 0.00 | 0.00 | 0.00 | 84 | 1014.9 |
| 20260906000057 | 74 | 5 | 1.0 | 5.0 | 0.00 | 0.00 | 0.00 | 83 | 1015.0 |
| 20260905234550 | 75 | 0 | 1.0 | 9.0 | 0.00 | 0.00 | 0.00 | 83 | 1014.9 |
| 20260905233106 | 76 | 5 | 1.0 | 12.0 | 0.00 | 0.00 | 0.00 | 81 | 1014.9 |
| 20260905231555 | 76 | 5 | 1.0 | 14.0 | 0.00 | 0.00 | 0.00 | 80 | 1014.6 |
| 20260905230059 | 77 | 5 | 3.0 | 9.0 | 0.00 | 0.00 | 0.00 | 78 | 1014.5 |
| 20260905224559 | 79 | 5 | 2.0 | 10.0 | 0.00 | 0.00 | 0.00 | 75 | 1014.2 |
| 20260905223055 | 81 | 0 | 1.0 | 10.0 | 0.00 | 0.00 | 0.00 | 73 | 1014.1 |
| 20260905221604 | 82 | 5 | 1.0 | 10.0 | 0.00 | 0.00 | 0.00 | 70 | 1014.0 |
| 20260905220058 | 84 | 5 | 0.0 | 4.0 | 0.00 | 0.00 | 0.00 | 69 | 1014.1 |
| 20260905214554 | 83 | 0 | 0.0 | 5.0 | 0.00 | 0.00 | 0.00 | 70 | 1014.1 |
| 20260905213110 | 83 | 5 | 1.0 | 5.0 | 0.00 | 0.00 | 0.00 | 72 | 1014.1 |
| 20260905211608 | 82 | 0 | 0.0 | 6.0 | 0.00 | 0.00 | 0.00 | 76 | 1014.2 |
| 20260905210108 | 80 | 5 | 1.0 | 4.0 | 0.00 | 0.00 | 0.00 | 78 | 1014.3 |
| 20260905204553 | 80 | 0 | 0.0 | 3.0 | 0.00 | 0.00 | 0.00 | 79 | 1014.5 |
| 20260905203058 | 80 | 5 | 0.0 | 4.0 | 0.00 | 0.00 | 0.00 | 78 | 1014.5 |
| 20260905201557 | 81 | 5 | 0.0 | 6.0 | 0.00 | 0.00 | 0.00 | 74 | 1014.5 |
| 20260905194554 | 83 | 5 | 1.0 | 6.0 | 0.00 | 0.00 | 0.00 | 72 | 1014.4 |
| 20260905193100 | 84 | 0 | 1.0 | 4.0 | 0.00 | 0.00 | 0.00 | 72 | 1014.5 |
| 20260905191555 | 84 | 5 | 2.0 | 7.0 | 0.00 | 0.00 | 0.00 | 71 | 1014.7 |
| 20260905190059 | 85 | 5 | 1.0 | 5.0 | 0.00 | 0.00 | 0.00 | 70 | 1014.7 |
| 20260905184606 | 86 | 5 | 1.0 | 9.0 | 0.00 | 0.00 | 0.00 | 69 | 1014.6 |
| 20260905183115 | 87 | 5 | 1.0 | 4.0 | 0.00 | 0.00 | 0.00 | 68 | 1014.7 |
| 20260905181555 | 88 | 5 | 1.0 | 6.0 | 0.00 | 0.00 | 0.00 | 66 | 1014.7 |
| 20260905174557 | 87 | 0 | 0.0 | 6.0 | 0.00 | 0.00 | 0.00 | 68 | 1014.4 |
| 20260905173053 | 88 | 5 | 2.0 | 8.0 | 0.00 | 0.00 | 0.00 | 68 | 1014.5 |
| 20260905171600 | 88 | 0 | 1.0 | 9.0 | 0.00 | 0.00 | 0.00 | 68 | 1014.4 |
| 20260905170100 | 88 | 5 | 2.0 | 8.0 | 0.00 | 0.00 | 0.00 | 68 | 1014.6 |
| 20260905164555 | 87 | 5 | 1.0 | 5.0 | 0.00 | 0.00 | 0.00 | 69 | 1014.7 |
| 20260905163053 | 87 | 5 | 2.0 | 5.0 | 0.00 | 0.00 | 0.00 | 69 | 1014.6 |
| 20260905161600 | 86 | 5 | 0.0 | 5.0 | 0.00 | 0.00 | 0.00 | 74 | 1014.5 |
| 20260905160106 | 86 | 5 | 1.0 | 4.0 | 0.00 | 0.00 | 0.00 | 71 | 1014.5 |
| 20260905154601 | 85 | 0 | 0.0 | 5.0 | 0.00 | 0.00 | 0.00 | 73 | 1014.4 |
| 20260905153105 | 84 | 5 | 1.0 | 5.0 | 0.00 | 0.00 | 0.00 | 76 | 1014.4 |
| 20260905151608 | 83 | 5 | 1.0 | 5.0 | 0.00 | 0.00 | 0.00 | 76 | 1014.1 |
| 20260905150057 | 82 | 0 | 0.0 | 6.0 | 0.00 | 0.00 | 0.00 | 77 | 1014.0 |
| 20260905144556 | 82 | 0 | 0.0 | 5.0 | 0.00 | 0.00 | 0.00 | 80 | 1013.9 |
| 20260905143103 | 80 | 5 | 0.0 | 3.0 | 0.00 | 0.00 | 0.00 | 84 | 1013.9 |
| 20260905141609 | 79 | 5 | 0.0 | 3.0 | 0.00 | 0.00 | 0.00 | 87 | 1013.8 |
| 20260905140108 | 78 | 5 | 1.0 | 5.0 | 0.00 | 0.00 | 0.00 | 85 | 1013.7 |
| 20260905134600 | 78 | 0 | 1.0 | 6.0 | 0.00 | 0.00 | 0.00 | 87 | 1013.7 |
| 20260905133101 | 78 | 5 | 1.0 | 5.0 | 0.00 | 0.00 | 0.00 | 88 | 1013.9 |
| 20260905131613 | 77 | 0 | 1.0 | 5.0 | 0.00 | 0.00 | 0.00 | 91 | 1014.0 |
| 20260905130100 | 76 | 0 | 0.0 | 5.0 | 0.00 | 0.00 | 0.00 | 94 | 1013.3 |
| 20260905124559 | 76 | 5 | 1.0 | 6.0 | 0.00 | 0.00 | 0.00 | 95 | 1013.1 |
| 20260905123056 | 76 | 0 | 0.0 | 3.0 | 0.00 | 0.00 | 0.00 | 95 | 1012.9 |
| 20260905121553 | 75 | 0 | 0.0 | 2.0 | 0.00 | 0.00 | 0.00 | 96 | 1012.9 |
| 20260905120058 | 74 | 0 | 0.0 | 3.0 | 0.00 | 0.00 | 0.00 | 96 | 1012.8 |